Home   Weather   Greenville   Past weeks
Flag for USA

Past Weather in Greenville, North Carolina, USA — Yesterday and Last 2 Weeks

Now
50 °F

Clear.


Feels Like: 50 °F
Forecast: 61 / 45 °F
Wind: No wind

Location: Greenville Airport

Current Time: Apr 10, 2020 at 5:36:48 am

Latest Report: Apr 10, 2020 at 5:15 am


Visibility: 10 mi

Pressure: 29.69 "Hg

Humidity: 62%

Dew Point: 37 °F

Location of GreenvilleLocation

Past Weather in Greenville — Graph

°F

Greenville Temperature Yesterday

Maximum temperature yesterday: 81 °F (at 3:15 pm)
Minimum temperature yesterday: 57 °F (at 4:35 am)
Average temperature yesterday: 68 °F

High & Low Weather Summary for the Past Weeks

 TemperatureHumidityPressure
High90 °F (Mar 28, 4:55 pm)100% (Mar 26, 4:15 am)30.17 "Hg (Mar 26, 4:15 am)
Low37 °F (Apr 1, 11:35 pm)17% (Mar 30, 5:15 pm)29.44 "Hg (Apr 9, 4:55 pm)
Average62 °F65%29.91 "Hg
* Reported Mar 26 4:15 am — Apr 10 4:15 am, Greenville. Weather by CustomWeather, © 2020

Note: Actual official high and low records may vary slightly from our data, if they occured in-between our weather recording intervals... More about our weather records

Greenville Weather History for the Previous 24 Hours

Scroll right to see more
 ConditionsComfort  
Time TempWeatherWind HumidityBarometerVisibility
4:15 am
Fri, Apr 10
50 °FClear.No wind50%29.69 "Hg10 mi
3:35 am55 °FClear.5 mph36%29.67 "Hg10 mi
3:15 am55 °FClear.6 mph36%29.68 "Hg10 mi
2:55 am55 °FClear.5 mph38%29.69 "Hg10 mi
2:35 am57 °FClear.3 mph36%29.68 "Hg10 mi
2:15 am57 °FClear.6 mph36%29.67 "Hg10 mi
1:55 am59 °FClear.5 mph31%29.67 "Hg10 mi
1:35 am59 °FClear.5 mph34%29.67 "Hg10 mi
1:15 am61 °FClear.8 mph31%29.66 "Hg10 mi
12:55 am61 °FClear.14 mph31%29.64 "Hg10 mi
12:35 am63 °FClear.9 mph32%29.64 "Hg10 mi
12:15 am63 °FClear.10 mph34%29.62 "Hg10 mi
11:55 pm
Thu, Apr 9
64 °FClear.9 mph34%29.61 "Hg10 mi
11:35 pm64 °FClear.7 mph37%29.58 "Hg10 mi
11:15 pm64 °FClear.7 mph40%29.56 "Hg10 mi
10:55 pm68 °FClear.8 mph33%29.56 "Hg10 mi
10:35 pm70 °FClear.8 mph35%29.54 "Hg10 mi
10:15 pm70 °FClear.3 mph40%29.54 "Hg10 mi
9:35 pm70 °FClear.3 mph40%29.51 "Hg10 mi
9:15 pm73 °FClear.3 mph33%29.50 "Hg10 mi
8:55 pm73 °FClear.6 mph33%29.49 "Hg10 mi
8:35 pm73 °FClear.7 mph33%29.48 "Hg10 mi
8:15 pm75 °FClear.5 mph34%29.47 "Hg10 mi
7:55 pm77 °FClear.6 mph34%29.46 "Hg10 mi
7:35 pm77 °FSunny.6 mph34%29.46 "Hg10 mi
7:15 pm79 °FSunny.9 mph32%29.46 "Hg10 mi
6:55 pm81 °FSunny.12 mph30%29.46 "Hg10 mi
6:35 pm81 °FSunny.12 mph37%29.46 "Hg10 mi
6:15 pm81 °FSunny.10 mph37%29.45 "Hg10 mi
5:55 pm81 °FSunny.13 mph37%29.45 "Hg10 mi
5:35 pm81 °FSunny.8 mph37%29.45 "Hg10 mi
5:15 pm81 °FSunny.10 mph37%29.45 "Hg10 mi
4:55 pm81 °FSunny.12 mph39%29.44 "Hg10 mi
4:35 pm81 °FSunny.16 mph39%29.45 "Hg10 mi
3:35 pm81 °FSunny.15 mph42%29.49 "Hg10 mi
3:15 pm81 °FSunny.21 mph45%29.48 "Hg10 mi
2:35 pm79 °FSunny.10 mph45%29.50 "Hg10 mi
1:55 pm77 °FSunny.15 mph47%29.50 "Hg10 mi
1:35 pm77 °FSunny.10 mph51%29.51 "Hg10 mi
1:15 pm77 °FSunny.13 mph51%29.52 "Hg10 mi
12:55 pm73 °FSunny.15 mph57%29.52 "Hg10 mi
12:35 pm73 °FSunny.12 mph61%29.53 "Hg10 mi
12:15 pm72 °FSunny.7 mph65%29.54 "Hg10 mi
11:55 am72 °FSunny.6 mph69%29.56 "Hg10 mi
11:35 am70 °FSunny.9 mph73%29.57 "Hg10 mi
11:15 am68 °FSunny.9 mph78%29.58 "Hg10 mi
10:55 am64 °FSunny.5 mph88%29.58 "Hg10 mi
10:35 am63 °FSunny.6 mph88%29.57 "Hg10 mi
10:15 am63 °FSunny.9 mph88%29.57 "Hg10 mi
9:35 am61 °FScattered clouds.6 mph88%29.57 "Hg10 mi
8:55 am59 °FRain. Cloudy.3 mph88%29.64 "Hg7 mi
8:35 am61 °FDrizzle. Broken clouds.6 mph83%29.65 "Hg10 mi
7:55 am63 °FScattered clouds.9 mph83%29.63 "Hg10 mi
7:35 am61 °FScattered clouds.7 mph94%29.64 "Hg10 mi
7:15 am61 °FSunny.No wind94%29.60 "Hg10 mi
6:55 am59 °FSunny.6 mph100%29.59 "Hg10 mi
6:35 am59 °FClear.5 mph100%29.59 "Hg10 mi
6:15 am59 °FClear.6 mph100%29.59 "Hg10 mi
5:55 am59 °FClear.7 mph100%29.56 "Hg10 mi
5:35 am59 °FClear.6 mph100%29.57 "Hg10 mi
5:15 am57 °FClear.3 mph100%29.58 "Hg10 mi
Weather by CustomWeather, © 2020

See weather overview

Advertising